Hourly Data Report for October 13, 2019

All times are specified in Local Standard Time (LST). Add 1 hour to adjust for Daylight Saving Time where and when it is observed.

CORAL HARBOUR A
NUNAVUT
Current Station Operator: NAVCAN

64°11'36.000" N
83°21'34.000" W
62.20 m
2301002
71915
YZS

Download Data

Hourly Data (October 2019)
Hourly Data Report for October 13, 2019
TIME Temp Definition
°C
Dew Point Definition
°C
Rel Hum Definition
%
Wind Dir Definition
10's deg

Wind Spd Definition
km/h
Visibility Definition
km
Stn Press Definition
kPa
Hmdx Definition


Wind Chill Definition


Weather Definition


00:00 -5.1 -6.5 90 7 11 24.1 101.56   -10 LegendNANA
01:00 -4.8 -6.2 90 6 10 24.1 101.56   -9 Mainly Clear
02:00 -6.3 -7.3 93 31 47 3.2 99.63   -16 Snow,Blowing Snow
03:00 -3.3 -4.9 89 10 9 24.1 101.57   -7 LegendNANA
04:00 -2.9 -4.0 92 11 10 24.1 101.58   -7 Mostly Cloudy
05:00 -2.7 -3.8 92 8 10 24.1 101.54   -7 Snow
06:00 -2.4 -3.2 94 8 7 24.1 101.53   -5 Snow
07:00 -2.8 -3.5 95 7 6 24.1 101.51   -5 Snow
08:00 -2.8 -3.4 96 7 9 24.1 101.46   -6 LegendNANA
09:00 -2.2 -2.9 95 8 5 24.1 101.40   -4 LegendNANA
10:00 -1.5 -3.0 90 25 3 24.1 101.36   -3 Mostly Cloudy
11:00 -1.4 -3.0 89 18 10 24.1 101.33   -5 LegendNANA
12:00 -1.1 -2.1 93 20 14 24.1 101.29   -6 LegendNANA
13:00 -0.8 -1.6 95 17 14 19.3 101.24   -5 Snow Showers
14:00 -0.8 -1.7 93 16 13 19.3 101.21   -5 Snow Showers
15:00 -0.8 -2.7 87 17 16 24.1 101.16   -6 LegendNANA
16:00 -1.0 -3.0 86 18 16 24.1 101.17   -6 Cloudy
17:00 -1.1 -3.2 85 17 14 24.1 101.15   -6 LegendNANA
18:00 -1.1 -3.0 87 21 13 24.1 101.13   -5 LegendNANA
19:00 -1.2 -3.3 85 23 7 24.1 101.15   -4 Cloudy
20:00 -1.1 -3.2 86 23 5 24.1 101.13   -3 LegendNANA
21:00 -1.2 -3.2 86 21 11 24.1 101.11   -5 LegendNANA
22:00 -1.5 -3.5 86 18 4 24.1 101.06   -3 Cloudy
23:00 -1.7 -3.4 88 17 4 24.1 101.01   -3 Snow

Notes on Data Quality.

Legend

  • E = Estimated
  • M = Missing
  • NA = Not Available
Date modified: